GSAT0219 (GALILEO 23)

Last updated on Sun Apr 12 2026 00:02:39 GMT+0000 (Coordinated Universal Time)

1 43566U 18060C 26101.04835266 -.00000072 00000+0 00000+0 0 9991 2 43566 57.1924 343.6002 0003680 334.3257 25.7037 1.70475643 48043
UTC large
Height (km)
Speed (km/s)
/
Latitude / Longitude
Inclination (degrees)
Orbital Period (minutes)
Azimuth
Elevation
Range (km)
Doppler Factor

Next 0 passes for location: London (51.5072 / 0.1276)

Sorry there are no passes over London.
GSAT0219 (GALILEO 23)